Location: Bidwell Hollow
(37.7387°N, 90.1707°W)
Time: 02:02:22
(UTC+00:00)

Tiros 1 despin weight - Pass Details

Date: 18 May 2026
Orbit: 554 x 591 km, 48.2° (Epoch: 6 June)

Event Time Altitude Azimuth Distance (km) Brightness Sun altitude
Rises 13:50:07 0° 305° (NW) 2,743 ? 33.9°
Reaches altitude 10° 13:52:42 10° 319° (NW) 1,842 ? 34.4°
Maximum altitude 13:56:10 24° 14° (NNE) 1,161 ? 35.1°
Drops below altitude 10° 13:59:37 10° 70° (ENE) 1,831 ? 35.8°
Sets 14:02:12 0° 85° (E) 2,724 ? 36.3°
